{"data":{"norad_id":66066,"epoch":"2026-09-20T22:07:02.583552Z","epoch_age_seconds":66598,"freshness":"FRESH","line1":"1 66066U 25235J   26263.92155768  .00014501  00000+0  43948-3 0  9994","line2":"2 66066  53.1585  57.6415 0000873  85.9183 274.1920 15.34400400 52826","mean_motion":15.344004,"eccentricity":8.73e-5,"inclination_deg":53.1585,"raan_deg":57.6415,"arg_perigee_deg":85.9183,"mean_anomaly_deg":274.192,"bstar":0.00043948,"rev_number":5282,"period_min":93.847733616336,"perigee_km":462.10484607389,"apogee_km":463.29925657225,"semimajor_km":6840.8390513231,"source":"CELESTRAK","updated_at":"2026-09-21T09:00:35.795390Z"}}